Temp
52 53 52 53 53 53 50 47 42 53 55 46 39 34 46 55 57 57 54 52 50 50 52 50 50 50 52 56 58 52 51 40 34 44 51 53 49 47 45 30 32 32 33 37
52 52 52 52 53 52 49 44 47 53 51 35 39 46 52 55 55 54 53 50 52 52 51 46 50 50 55 58 55 52 51 39 31 39 44 46 43 43 36 34 36 35 28 36
52 52 52 52 52 53 49 45 35 44 46 45 46 48 47 48 57 55 55 53 53 48 47 52 48 48 54 56 52 52 52 43 38 33 38 37 34 37 32 34 30 34 35 43
52 52 52 52 52 52 48 44 38 45 34 38 45 51 50 48 49 55 55 48 50 47 42 45 46 48 49 53 52 50 48 38 37 41 48 46 45 42 39 35 41 36 47 45
51 51 52 52 52 52 46 39 41 45 43 47 45 47 45 50 52 52 49 48 50 49 43 46 42 47 47 47 47 47 47 38 40 37 45 46 43 46 45 43 45 42 45 44
51 51 51 51 52 51 45 47 49 47 44 45 43 44 50 50 53 54 56 52 50 47 50 52 50 52 52 51 47 44 43 36 34 33 42 40 32 42 46 45 45 44 37 46
51 50 50 50 51 51 48 49 49 44 36 44 45 51 53 52 53 50 55 53 50 52 55 53 52 50 51 51 47 49 40 37 31 27 34 20 42 52 52 48 49 47 48 49
50 50 50 50 50 51 47 47 48 45 36 45 47 51 52 56 55 53 53 55 57 54 50 38 36 33 39 43 48 46 46 37 28 25 27 36 45 48 47 45 43 47 46 49
50 49 50 49 50 50 48 47 48 46 42 43 52 50 54 49 45 47 48 52 51 48 38 32 26 28 34 33 40 48 45 42 34 28 24 23 39 50 52 49 35 48 47 46
49 49 50 49 49 50 48 46 49 45 43 49 54 48 47 54 48 42 43 48 47 45 28 26 29 31 42 32 33 32 33 31 27 24 26 34 47 50 51 35 35 47 47 46
49 49 49 49 49 50 48 46 49 47 44 47 50 57 53 52 49 40 43 41 40 34 30 31 30 30 36 35 39 36 34 29 24 25 21 26 48 48 42 43 45 46 44 43
49 49 49 49 49 50 50 43 50 51 46 44 49 52 57 59 57 46 42 43 41 40 35 31 32 32 29 35 30 42 35 37 32 34 34 44 46 45 46 48 46 44 43 45
49 48 49 49 49 50 50 46 49 49 44 44 47 48 54 59 57 56 42 42 47 44 45 38 37 36 36 30 33 37 42 46 35 38 43 44 46 48 49 48 46 46 47 46
48 48 48 48 49 50 51 46 49 49 45 38 43 55 52 58 59 59 55 53 53 51 47 36 33 33 42 35 41 39 42 44 41 39 42 44 46 46 46 46 47 47 47 47
48 48 48 47 49 50 50 48 49 51 45 38 40 50 55 56 57 57 57 55 51 43 38 35 36 39 40 37 39 36 43 42 37 36 45 43 43 45 48 46 45 45 43 42
48 48 48 47 48 49 47 37 49 50 49 40 36 46 49 53 55 54 54 52 48 43 41 36 39 43 38 30 33 44 46 48 48 46 47 45 45 46 48 44 43 43 42 42
47 47 47 46 48 47 42 41 46 51 50 40 36 37 47 51 52 48 47 48 43 45 36 35 38 39 37 30 33 45 46 48 46 47 47 42 43 41 45 43 43 44 42 42
47 46 45 46 49 49 44 48 49 53 47 44 33 34 40 50 41 41 47 42 42 41 37 38 38 38 36 32 42 44 46 46 46 45 47 44 44 44 43 44 43 40 38 39
45 45 45 46 45 41 44 49 50 51 46 36 35 34 33 47 42 43 42 42 36 39 31 35 37 32 32 40 42 45 46 45 43 44 45 44 42 42 42 42 41 38 36 35
45 42 41 34 43 49 49 45 39 38 39 41 35 41 36 43 41 37 38 36 35 33 34 37 30 34 41 45 47 49 45 45 45 39 38 39 39 40 40 40 39 37 35 34
36 32 34 42 50 43 39 32 33 34 34 40 41 40 39 46 37 36 40 36 35 29 33 33 29 30 37 45 44 45 46 46 45 46 45 45 42 39 37 36 36 35 34 32
38 39 44 44 39 32 32 31 32 34 33 39 37 41 42 43 45 38 39 37 32 31 34 28 28 32 39 41 42 44 44 44 43 43 41 40 40 39 36 35 34 33 32 31
43 40 36 35 32 29 30 27 31 32 36 41 43 39 40 44 43 34 34 30 30 34 23 28 30 35 39 41 43 41 42 41 40 40 40 38 37 37 36 33 33 32 31 30
33 32 29 32 29 31 31 32 33 36 40 45 45 36 37 36 34 33 33 32 32 24 21 27 27 34 37 40 40 38 37 37 37 36 36 35 33 32 32 31 29 29 28 28
32 34 30 32 34 32 33 38 41 44 49 45 38 37 37 33 35 32 30 27 25 28 26 27 30 35 36 35 36 35 33 33 33 34 31 30 30 29 27 29 29 28 23 21
34 36 31 31 31 28 32 42 43 50 49 45 40 36 34 34 33 30 27 29 25 27 27 30 33 33 34 34 34 34 34 32 31 30 30 28 27 25 25 24 23 20 21 18
33 31 31 31 34 40 41 45 45 52 47 35 35 33 34 33 29 29 29 27 27 29 31 33 34 33 33 33 33 32 32 31 30 30 30 28 27 24 25 23 24 26 25 16
MSLP
1022.48 1022.55 1022.65 1022.66 1022.68 1022.79 1022.79 1022.48 1022.12 1021.04 1021.12 1021.82 1022.36 1022.12 1020.41 1018.86 1018.09 1017.81 1017.91 1018.19 1018.48 1018.93 1019.19 1019.30 1019.85 1020.22 1019.99 1020.09 1020.27 1021.09 1021.98 1023.31 1024.23 1023.94 1023.59 1023.75 1024.15 1024.70 1025.63 1027.11 1027.80 1027.29 1025.82 1022.55
1021.99 1022.11 1022.21 1022.30 1022.30 1022.55 1022.21 1022.03 1021.34 1021.82 1021.42 1021.68 1022.15 1021.13 1019.79 1018.74 1018.09 1017.87 1018.14 1018.29 1018.47 1018.75 1019.36 1019.97 1020.12 1020.28 1020.36 1020.36 1020.44 1021.25 1022.14 1023.88 1024.74 1024.57 1024.71 1024.73 1024.97 1025.50 1026.45 1027.01 1027.43 1027.00 1026.19 1023.02
1021.44 1021.56 1021.76 1021.85 1021.86 1022.05 1022.26 1021.60 1021.20 1022.02 1022.37 1021.52 1021.48 1020.49 1019.52 1018.82 1017.73 1017.73 1017.89 1018.35 1018.66 1019.08 1019.60 1019.83 1020.44 1021.06 1021.13 1021.14 1021.24 1021.60 1022.15 1023.82 1024.58 1024.81 1024.72 1025.17 1025.70 1026.07 1026.75 1027.05 1027.74 1026.34 1025.01 1023.00
1021.06 1021.13 1021.30 1021.36 1021.44 1021.71 1022.43 1021.43 1020.71 1020.05 1021.03 1021.42 1020.78 1020.11 1018.89 1018.64 1017.95 1017.60 1017.84 1018.62 1018.82 1019.26 1020.01 1020.36 1020.79 1021.38 1021.76 1022.03 1022.01 1022.21 1022.85 1024.21 1024.79 1024.81 1024.93 1025.05 1025.12 1025.55 1026.31 1026.45 1025.60 1025.46 1023.65 1022.92
1020.47 1020.61 1020.82 1020.81 1021.00 1021.45 1021.88 1020.53 1020.26 1019.92 1019.76 1020.42 1020.02 1019.50 1018.49 1017.83 1017.79 1017.76 1018.08 1018.56 1018.98 1019.44 1020.07 1020.35 1021.10 1021.31 1021.81 1021.95 1022.63 1022.76 1023.47 1024.46 1025.06 1025.31 1024.99 1025.02 1024.95 1024.92 1024.77 1024.82 1024.39 1023.99 1023.33 1022.40
1019.92 1020.15 1020.35 1020.47 1020.59 1021.13 1020.88 1020.25 1019.82 1019.02 1019.35 1019.37 1019.76 1018.44 1017.61 1016.94 1017.32 1017.47 1017.47 1018.27 1019.05 1019.73 1020.02 1020.36 1020.65 1020.98 1021.33 1021.64 1022.47 1023.42 1024.34 1025.43 1026.41 1026.46 1025.81 1025.20 1024.70 1023.18 1023.03 1023.00 1022.87 1022.76 1022.90 1021.68
1019.37 1019.66 1019.94 1020.12 1020.21 1020.58 1020.69 1019.86 1019.29 1019.56 1019.49 1018.65 1017.61 1017.25 1017.55 1017.06 1017.21 1017.49 1017.70 1018.12 1018.75 1019.51 1019.81 1020.43 1021.04 1021.84 1022.31 1022.53 1022.78 1023.18 1024.75 1025.95 1027.05 1027.47 1026.92 1025.73 1023.20 1021.95 1021.50 1021.73 1021.74 1022.01 1021.92 1021.85
1018.84 1019.23 1019.65 1019.89 1020.14 1020.41 1020.69 1020.41 1019.70 1019.03 1018.81 1018.24 1018.12 1017.65 1017.22 1017.17 1017.46 1017.71 1017.83 1018.01 1017.88 1019.21 1020.78 1023.06 1024.15 1024.73 1024.04 1023.67 1023.40 1023.85 1024.38 1025.98 1027.72 1028.33 1027.80 1025.59 1022.94 1021.61 1021.30 1021.39 1021.83 1022.01 1022.21 1021.80
1018.36 1018.77 1019.28 1019.60 1019.80 1020.19 1020.52 1020.41 1020.70 1019.94 1018.80 1017.14 1017.10 1017.23 1016.46 1016.61 1017.30 1018.32 1018.46 1018.59 1018.79 1019.69 1022.72 1024.55 1025.77 1025.82 1025.27 1024.89 1024.44 1024.46 1025.24 1026.14 1027.58 1028.90 1028.28 1026.30 1023.03 1021.60 1021.15 1021.41 1022.14 1022.11 1022.22 1022.26
1017.89 1018.33 1018.78 1019.21 1019.52 1019.74 1020.21 1020.05 1020.18 1020.51 1018.42 1016.55 1016.06 1016.00 1015.90 1016.28 1017.06 1018.39 1019.25 1019.32 1020.00 1021.04 1023.67 1025.97 1026.65 1026.28 1025.21 1025.23 1025.12 1025.38 1026.13 1027.20 1028.17 1028.49 1027.79 1025.44 1022.56 1021.75 1021.53 1022.42 1022.96 1022.61 1022.73 1023.05
1017.48 1017.95 1018.35 1018.86 1019.20 1019.23 1019.64 1019.63 1019.96 1019.83 1018.62 1016.75 1016.23 1015.64 1015.18 1015.52 1016.53 1018.33 1019.43 1020.38 1021.12 1022.79 1024.18 1025.40 1026.26 1025.88 1025.28 1024.95 1024.65 1024.99 1025.69 1026.83 1027.73 1028.17 1027.54 1025.29 1022.32 1022.02 1022.33 1022.82 1022.81 1023.27 1023.70 1024.11
1017.12 1017.56 1017.92 1018.42 1018.76 1018.76 1019.17 1019.27 1019.30 1019.26 1018.95 1017.92 1016.72 1016.01 1015.06 1014.69 1015.65 1017.06 1018.97 1019.34 1020.09 1021.08 1023.01 1024.56 1025.12 1025.48 1025.03 1024.61 1024.77 1024.40 1024.92 1024.45 1025.19 1026.07 1024.75 1023.20 1022.44 1022.29 1022.41 1022.79 1023.31 1024.01 1024.43 1025.13
1016.61 1017.11 1017.53 1017.94 1018.23 1018.26 1018.52 1018.79 1018.91 1018.91 1018.87 1017.47 1016.43 1016.08 1015.66 1015.50 1016.43 1016.69 1018.41 1019.18 1019.19 1019.99 1020.21 1022.49 1023.83 1024.43 1024.09 1024.43 1023.97 1023.60 1023.39 1023.37 1023.93 1024.54 1023.44 1023.16 1022.78 1022.46 1022.56 1022.94 1023.63 1024.43 1025.07 1025.58
1016.11 1016.63 1017.07 1017.52 1017.75 1017.78 1018.00 1018.41 1018.32 1018.34 1017.61 1017.20 1017.03 1016.15 1016.05 1015.84 1015.93 1016.29 1017.10 1017.70 1018.10 1018.96 1020.20 1022.00 1023.32 1023.78 1023.12 1023.47 1022.81 1022.75 1022.29 1022.62 1023.13 1023.57 1023.46 1023.42 1023.16 1022.90 1023.29 1023.88 1024.46 1025.30 1026.00 1026.48
1015.62 1016.24 1016.75 1017.21 1017.35 1017.47 1017.82 1018.11 1017.41 1017.06 1017.72 1017.44 1017.45 1016.82 1016.45 1016.15 1015.93 1016.08 1016.89 1017.50 1018.18 1019.43 1021.18 1022.31 1022.81 1022.75 1023.00 1023.06 1022.84 1022.42 1021.52 1021.72 1022.22 1022.10 1022.09 1022.44 1022.86 1023.46 1023.92 1024.64 1025.67 1026.37 1026.76 1027.69
1015.16 1015.81 1016.29 1016.67 1017.03 1017.24 1018.01 1018.27 1017.56 1017.12 1017.19 1017.75 1017.85 1017.78 1017.29 1016.87 1016.71 1017.27 1017.68 1017.84 1018.60 1019.81 1020.88 1022.19 1022.25 1022.08 1022.44 1023.19 1022.55 1021.17 1020.65 1020.51 1020.51 1021.07 1021.64 1022.48 1023.25 1024.22 1024.76 1025.50 1026.67 1027.45 1028.00 1028.87
1014.83 1015.38 1015.89 1016.22 1016.41 1016.55 1016.65 1016.17 1015.63 1016.07 1016.76 1017.34 1018.21 1018.14 1017.74 1017.49 1017.37 1018.11 1018.48 1018.61 1019.56 1020.07 1021.34 1021.96 1022.38 1022.39 1022.37 1022.54 1022.17 1020.86 1020.57 1020.46 1020.80 1021.18 1021.95 1023.82 1024.11 1025.18 1025.90 1026.37 1027.75 1028.45 1029.33 1030.09
1014.43 1014.95 1015.31 1015.75 1015.75 1016.37 1016.53 1015.37 1015.49 1015.64 1016.34 1017.34 1017.98 1018.50 1018.30 1017.94 1018.12 1018.92 1019.16 1020.20 1020.27 1021.06 1021.77 1022.19 1022.43 1022.71 1022.65 1022.15 1020.94 1020.65 1020.83 1021.00 1021.45 1021.73 1021.90 1023.00 1024.70 1025.82 1026.77 1027.44 1028.30 1029.33 1030.28 1031.10
1014.16 1014.88 1015.33 1015.24 1015.11 1015.08 1015.24 1015.11 1014.75 1014.90 1016.06 1016.31 1016.58 1017.19 1018.11 1018.24 1018.56 1018.97 1019.85 1020.32 1021.53 1022.10 1022.18 1022.39 1022.53 1022.51 1021.68 1020.14 1020.00 1020.26 1020.49 1020.54 1021.75 1022.60 1023.26 1024.32 1025.26 1026.39 1027.34 1028.08 1029.16 1030.01 1031.27 1032.00
1014.14 1015.25 1014.35 1013.42 1013.13 1013.80 1014.54 1014.80 1014.91 1015.06 1014.92 1015.17 1015.46 1016.60 1017.28 1017.71 1018.23 1019.52 1020.54 1020.73 1021.67 1022.49 1022.24 1022.19 1022.18 1020.98 1019.73 1019.17 1019.06 1019.31 1020.19 1020.75 1021.66 1023.02 1024.59 1025.29 1026.18 1026.94 1028.01 1028.89 1029.91 1030.78 1031.91 1032.88
1014.64 1014.04 1013.02 1012.48 1012.53 1013.66 1014.19 1014.60 1014.22 1014.63 1014.58 1014.35 1015.02 1015.67 1016.44 1017.41 1018.31 1019.61 1020.10 1020.99 1021.78 1022.39 1022.09 1022.26 1021.94 1020.59 1018.93 1018.29 1018.91 1019.64 1020.40 1021.05 1021.91 1022.51 1023.93 1025.01 1025.76 1027.19 1028.61 1029.97 1030.94 1031.87 1032.76 1033.73
1012.28 1011.53 1011.14 1011.39 1012.28 1013.33 1013.68 1012.99 1013.56 1013.35 1013.29 1013.68 1013.66 1015.17 1016.59 1017.50 1018.41 1019.70 1020.40 1020.71 1021.67 1021.85 1021.89 1022.41 1021.49 1019.53 1018.60 1018.66 1019.21 1019.99 1020.81 1021.69 1022.80 1023.60 1024.96 1026.17 1027.12 1028.16 1029.36 1030.66 1031.89 1032.76 1033.62 1034.58
1010.94 1010.83 1010.53 1010.87 1011.57 1011.20 1011.27 1011.64 1012.13 1012.22 1011.92 1012.08 1012.60 1015.15 1016.16 1016.76 1017.46 1018.80 1019.80 1020.81 1021.57 1021.53 1022.41 1021.89 1020.56 1019.55 1019.34 1019.73 1020.13 1021.16 1021.96 1022.76 1023.86 1025.16 1026.23 1027.21 1028.35 1029.34 1030.18 1031.63 1032.77 1033.54 1034.44 1035.39
1010.60 1009.69 1010.28 1010.36 1011.13 1009.98 1008.70 1008.96 1009.28 1009.36 1009.60 1010.85 1012.33 1013.95 1015.02 1016.31 1017.64 1018.83 1020.06 1020.86 1021.13 1022.17 1022.24 1021.05 1020.11 1019.98 1020.30 1020.76 1021.36 1021.97 1023.46 1024.17 1025.19 1026.45 1027.46 1028.45 1029.49 1030.69 1031.73 1032.58 1033.45 1034.21 1035.30 1036.20
1010.17 1009.13 1008.21 1008.53 1008.10 1007.84 1006.96 1007.07 1007.21 1007.99 1008.58 1010.13 1012.43 1014.07 1015.06 1016.56 1017.78 1018.88 1020.01 1021.09 1021.08 1020.67 1020.04 1019.71 1019.95 1020.43 1021.01 1021.94 1022.80 1023.51 1024.62 1025.55 1026.67 1027.77 1028.59 1029.70 1030.72 1031.78 1032.99 1033.73 1034.32 1034.96 1035.86 1036.65
1009.01 1007.68 1007.53 1007.57 1007.91 1007.71 1007.31 1006.75 1007.33 1007.99 1008.79 1010.55 1011.99 1014.38 1015.99 1017.09 1017.65 1018.67 1018.87 1019.64 1019.44 1018.81 1019.05 1019.52 1020.28 1021.27 1022.10 1023.02 1023.87 1024.75 1025.62 1026.54 1027.81 1028.91 1029.70 1030.77 1031.78 1032.72 1033.86 1034.47 1034.99 1035.62 1036.29 1036.98
1008.35 1007.71 1006.95 1006.68 1006.80 1006.66 1006.65 1006.29 1006.79 1007.50 1008.29 1010.60 1012.44 1013.86 1015.12 1016.28 1017.13 1017.79 1017.77 1017.91 1017.65 1018.22 1019.17 1019.98 1020.84 1021.72 1022.89 1023.85 1024.82 1025.79 1026.67 1027.78 1028.87 1029.83 1030.74 1031.71 1032.66 1033.53 1034.36 1035.16 1035.66 1036.01 1036.53 1037.11
Wind_Speed
11 10 8 9 9 7 4 2 3 2 6 5 3 4 7 5 6 2 3 4 3 5 3 5 7 8 3 4 5 5 1 6 4 5 2 1 2 5 5 7 5 3 3 8
13 11 10 10 10 12 2 3 2 1 3 8 3 5 5 2 5 5 5 4 3 3 7 4 3 3 2 4 4 7 5 1 3 7 6 5 3 2 4 3 3 5 6 8
14 13 12 12 11 14 3 2 3 3 2 0 6 7 8 4 4 5 5 5 4 3 4 2 6 2 3 6 3 6 7 4 7 9 5 5 1 3 1 5 3 4 7 4
15 12 12 12 12 12 5 4 5 5 7 10 8 12 9 8 4 4 7 2 5 6 4 3 4 3 2 4 2 3 5 5 2 5 4 4 5 5 7 7 8 8 12 7
15 12 12 12 12 11 5 2 4 2 1 12 15 11 9 19 11 8 6 8 8 6 6 7 8 7 5 5 0 3 2 2 2 3 4 8 5 9 9 10 8 9 12 18
16 14 10 11 11 11 2 1 4 1 4 15 10 14 15 15 9 5 11 10 7 6 7 5 2 4 5 9 8 4 5 6 4 4 3 3 5 11 15 7 6 6 8 11
17 14 11 10 9 13 1 3 2 3 3 11 19 20 16 9 14 7 5 8 8 5 8 5 8 9 9 5 2 4 7 6 3 3 4 2 9 6 6 10 10 8 7 6
17 15 12 10 9 10 5 3 3 1 2 10 17 12 13 11 6 6 7 6 9 10 8 6 6 7 8 5 2 2 4 5 3 4 3 6 8 0 2 4 2 2 5 6
17 15 12 10 8 11 6 3 3 4 3 11 19 19 15 8 6 3 3 5 6 10 5 5 6 5 6 3 1 4 6 5 6 2 4 5 7 2 2 3 5 5 4 6
16 12 11 10 9 13 8 3 6 3 4 3 10 13 8 7 5 5 1 4 5 5 3 4 4 4 5 5 7 4 3 3 6 3 2 9 9 3 2 3 9 4 2 3
16 14 12 9 9 14 11 4 5 3 5 4 2 5 7 5 5 7 5 6 5 5 6 5 4 4 7 4 5 7 8 7 4 3 4 9 3 3 4 6 1 3 4 4
16 13 12 11 10 15 16 4 3 3 2 5 3 4 4 4 5 7 1 5 6 7 6 0 4 1 2 5 4 2 3 9 8 10 9 5 2 4 2 4 4 3 7 7
16 13 11 10 10 15 18 6 3 3 3 4 2 2 6 6 5 3 6 3 6 2 4 6 3 3 5 5 6 4 3 5 4 4 4 5 4 3 3 3 5 7 7 9
15 14 12 8 10 14 20 6 3 5 2 2 1 3 3 5 1 4 7 4 2 7 4 4 4 3 4 5 3 6 6 7 6 1 3 4 4 1 7 8 11 12 9 8
15 14 12 6 11 13 11 4 4 3 2 3 1 1 4 4 5 4 6 7 6 4 3 3 3 2 4 1 2 3 5 8 7 8 10 6 5 7 9 13 10 11 16 16
15 14 14 5 12 16 6 3 7 6 2 3 3 3 3 4 6 10 6 3 4 4 5 3 1 1 5 3 4 5 4 4 6 6 6 4 10 8 8 16 15 15 17 15
16 11 9 9 15 12 8 4 1 15 2 3 3 2 3 2 3 3 3 5 2 4 3 2 4 1 5 3 4 4 6 6 8 12 16 8 2 9 15 20 17 19 16 14
13 8 9 18 17 8 9 8 10 14 3 3 4 2 2 2 1 3 2 1 3 5 2 2 3 2 2 3 7 6 6 8 8 4 6 12 17 17 16 17 16 17 14 13
10 8 18 8 8 5 7 7 8 4 3 5 3 5 4 2 2 3 3 3 3 2 2 2 5 3 7 8 8 12 13 10 12 13 18 18 18 17 16 16 15 16 13 12
8 5 7 5 7 13 15 1 3 1 1 2 4 4 4 4 2 2 3 1 3 2 5 3 3 6 5 6 10 12 11 17 20 20 12 16 16 15 15 14 13 13 12 11
3 5 5 3 22 4 1 3 4 4 3 4 4 4 7 1 5 3 0 3 3 3 5 6 4 5 7 9 9 10 13 15 9 12 14 13 17 17 16 14 13 12 12 10
9 5 3 4 4 3 7 5 4 4 7 4 8 9 5 4 4 4 3 3 2 4 3 4 5 5 1 8 13 15 15 16 16 18 18 18 17 16 16 14 13 12 12 10
3 5 4 4 3 3 8 8 4 5 6 9 13 11 5 4 3 4 4 5 5 3 3 6 6 1 6 11 15 14 16 20 20 20 19 19 17 15 16 14 12 13 11 8
4 7 9 7 7 7 7 8 7 6 9 18 15 5 5 3 4 4 6 3 5 2 3 7 3 6 8 11 13 20 18 19 20 19 18 18 16 14 13 13 11 12 10 7
3 5 6 6 5 3 4 4 7 8 17 16 7 5 4 3 6 2 5 3 5 7 7 4 5 10 14 15 15 18 17 16 16 15 16 15 15 14 12 9 9 10 7 6
5 3 4 1 5 3 1 11 14 15 15 7 5 5 4 3 4 4 8 8 8 6 4 5 11 14 15 15 15 15 15 16 15 13 14 14 13 13 10 7 7 6 7 6
5 5 2 3 4 10 12 14 15 14 15 7 6 7 7 5 4 5 6 7 4 7 8 8 13 17 16 15 16 15 16 15 14 14 13 13 11 10 9 8 4 4 6 4
Wind_Direction
226 239 254 253 257 257 209 138 216 75 190 138 158 181 197 229 175 115 132 124 120 157 184 144 176 186 196 314 157 111 88 126 165 196 261 321 208 208 151 125 248 238 156 275
224 237 245 241 236 185 200 176 141 98 328 151 203 264 230 255 168 147 155 138 145 156 160 148 174 135 245 276 99 148 171 16 53 346 353 355 228 27 87 109 84 212 136 262
225 237 238 229 228 206 250 104 129 131 169 320 201 197 203 218 217 160 133 143 114 116 131 97 173 124 3 353 79 117 100 145 163 186 196 148 204 223 166 132 137 191 229 273
223 226 230 222 222 203 217 199 224 160 173 196 197 205 181 187 202 183 138 84 159 154 143 120 144 114 73 10 348 77 102 170 143 228 222 190 195 193 189 192 214 183 252 223
218 224 228 213 216 188 226 190 152 180 152 168 196 194 208 189 214 157 202 144 172 172 143 170 192 140 182 190 252 123 56 216 153 295 241 224 237 239 216 221 245 247 262 272
215 209 203 210 215 168 222 244 265 66 167 174 179 203 201 198 164 224 167 158 141 167 195 153 218 175 160 161 143 137 134 124 99 256 338 11 330 235 218 201 204 175 211 243
206 200 194 215 213 199 287 243 300 128 203 183 194 195 212 200 201 187 174 129 134 212 122 90 38 43 48 94 159 132 137 114 111 220 21 320 239 271 235 221 251 215 273 275
204 196 191 215 225 218 222 297 310 126 183 187 216 209 202 201 196 195 168 194 163 147 64 64 42 352 21 326 270 170 120 114 104 139 201 287 299 36 206 184 292 356 270 291
203 199 202 211 235 219 228 236 235 290 165 210 188 202 188 181 150 65 348 22 91 72 86 84 136 188 193 249 178 42 77 59 120 129 144 229 240 257 6 69 289 297 275 164
195 200 206 202 242 232 210 244 183 279 262 253 189 184 175 163 109 106 60 155 61 62 90 95 137 217 178 169 180 174 90 29 164 135 203 283 249 217 38 104 240 326 5 108
198 208 209 206 251 235 202 209 221 197 269 308 358 195 175 118 121 142 215 69 335 48 74 119 198 142 219 141 187 175 161 154 185 89 78 273 200 89 179 212 9 116 56 92
198 206 213 217 256 230 199 220 197 208 272 277 263 288 65 115 133 118 310 176 164 169 94 145 104 133 72 159 221 138 199 178 180 174 211 232 276 166 155 168 138 153 118 111
199 203 209 228 256 232 200 188 200 194 240 263 38 74 357 74 91 151 120 301 144 159 166 153 157 192 122 161 229 164 252 153 160 93 234 182 170 138 91 126 123 116 121 119
201 203 212 237 254 235 199 203 185 216 223 112 285 318 35 315 46 148 157 178 108 113 79 110 135 155 162 197 206 174 192 134 157 246 21 80 276 166 127 98 104 101 87 96
198 204 208 255 247 235 197 217 276 241 153 163 156 28 340 348 22 66 134 139 115 100 78 90 196 152 104 336 54 237 185 170 160 212 195 164 187 146 134 111 107 99 99 84
195 208 217 242 260 215 141 223 227 200 155 110 131 296 319 357 77 83 53 72 77 89 126 172 172 149 111 145 207 257 208 194 160 186 136 94 108 87 101 104 104 99 95 95
192 213 226 281 251 200 182 199 249 167 134 101 88 70 328 351 60 57 41 25 73 92 119 96 144 170 106 134 184 237 185 145 114 118 108 72 69 125 110 106 103 97 93 90
188 228 279 282 216 175 233 270 210 148 125 118 134 178 99 340 61 90 85 60 33 16 134 52 125 45 80 249 223 167 144 116 113 103 83 116 117 112 112 112 111 101 100 96
181 238 268 248 195 175 204 202 115 106 174 158 144 122 152 178 133 110 51 88 68 297 95 238 104 190 213 217 176 167 168 164 138 109 114 121 122 123 121 117 113 109 107 101
171 245 207 167 166 141 120 81 89 189 280 134 98 131 140 121 136 81 101 21 127 142 242 96 153 246 236 210 191 178 154 133 131 119 124 127 128 127 126 119 116 116 112 104
178 210 196 198 138 95 124 165 167 154 165 146 137 120 126 105 88 123 8 159 149 162 244 148 250 265 223 186 156 142 140 140 135 124 127 127 126 126 120 113 112 111 108 107
205 201 162 129 106 135 186 158 126 177 176 178 134 137 138 109 115 104 247 145 84 214 145 101 262 252 307 126 129 129 126 119 112 114 114 116 116 119 116 116 116 111 107 107
234 212 118 134 150 187 169 155 154 153 171 170 144 149 151 129 99 90 122 128 199 93 66 224 227 271 122 124 117 106 109 109 109 109 110 109 108 110 115 116 113 111 104 104
238 172 144 184 190 222 181 167 162 179 146 146 146 119 122 134 86 129 123 203 114 137 212 230 225 151 120 119 117 115 116 114 113 115 113 109 108 102 103 109 114 111 111 112
239 211 166 166 211 249 147 168 117 133 136 137 121 79 90 77 104 127 105 112 214 209 220 209 152 125 121 118 119 116 115 116 113 118 113 109 108 107 102 104 110 111 111 114
248 257 113 217 85 309 116 131 127 142 132 110 64 91 95 162 148 140 205 163 213 224 177 136 125 124 123 123 120 117 116 115 115 113 112 110 112 113 118 107 107 117 126 128
230 210 211 141 139 164 153 147 141 151 142 137 136 130 182 99 156 205 187 198 199 134 120 125 133 131 128 123 117 117 117 112 113 113 110 109 110 114 111 120 158 140 107 111